Regional Weather Roundup
Issued by NWS

Home | Current Version | Previous Version | Text Only | Print | Product List | Glossary Off
Versions: 1 2 3 4 5 6 7 8 9 10 11 12 13 14 15 16 17 18 19 20 21 22 23 24 25 26 27 28 29 30 31 32 33 34 35 36 37 38 39 40 41 42 43 44 45 46 47 48 49 50

000
ASUS43 KMKX 051921
RWRWI

WISCONSIN REGIONAL WEATHER ROUNDUP
NATIONAL WEATHER SERVICE MILWAUKEE/SULLIVAN WI
200 PM CDT THU MAY 05 2016

NOTE: "FAIR" INDICATES FEW OR NO CLOUDS BELOW 12,000 FEET WITH NO
SIGNIFICANT WEATHER AND/OR OBSTRUCTIONS TO VISIBILITY.

WIZ001-002-006>008-014>016-023>028-052000-
NORTHWEST WISCONSIN

CITY           SKY/WX    TMP DP  RH WIND       PRES   REMARKS
SUPERIOR ARPT  SUNNY     70  38  31 SW17G24   29.90F
ASHLAND        SUNNY     73  37  27 SW13G20   29.92F
HAYWARD        MOSUNNY   65  29  25 SW9       29.96F
SIREN          MOSUNNY   61  38  42 S10       29.98F
CUMBERLAND     MOSUNNY   63  32  31 SW9G18    29.99S
RICE LAKE      SUNNY     65  29  25 SW12      30.00F
CHETEK         SUNNY     65  34  31 W7        29.99F
LADYSMITH      SUNNY     66  35  32 SW10G17   30.00F
EAU CLAIRE     PTSUNNY   65  34  31 SW12      30.00F
MENOMONIE      SUNNY     69  33  26 S6        30.01F
NEW RICHMOND   LGT RAIN  58  41  53 S6        30.00S
OSCEOLA        PTSUNNY   66  35  31 SW12      30.01F
$$

WIZ003>005-009-010-017-018-052000-
NORTH CENTRAL WISCONSIN

CITY           SKY/WX    TMP DP  RH WIND       PRES   REMARKS
MANITOWISH WTR SUNNY     64  32  29 SW7       29.95F
ARBOR VITAE    SUNNY     64  28  25 NW8       29.96F
WOODRUFF       SUNNY     64  28  25 NW8       29.96F
RHINELANDER    SUNNY     66  27  23 W7        29.97F
EAGLE RIVER    SUNNY     63  22  20 SW6       29.95F
LAND O LAKES   SUNNY     65  23  20 W5        29.96F
PHILLIPS       SUNNY     63  37  37 SW7       29.97F
TOMAHAWK       SUNNY     64  26  23 NW9       29.98F
MEDFORD        SUNNY     61  37  40 W12       29.99F
MERRILL        SUNNY     64  32  29 W8G16     29.98F
$$

WIZ029-030-035-036-043>047-052000-
CENTRAL WISCONSIN

CITY           SKY/WX    TMP DP  RH WIND       PRES   REMARKS
WAUSAU         SUNNY     64  31  28 W6        29.98F
MOSINEE        SUNNY     63  30  29 NW9       30.01F
MARSHFIELD     SUNNY     64  29  26 W7        30.00F
STEVENS POINT  SUNNY     61  29  29 SW6       30.00F
WAUPACA        SUNNY     66  35  32 NW7       30.00F
WAUTOMA        SUNNY     62  34  35 W6        30.00F
WISC RAPIDS    SUNNY     64  28  25 VRB3      30.01F
CAMP DOUGLAS   MOSUNNY   64  34  32 NW8       30.01F
$$

WIZ011>013-019>022-031-037>040-048>050-052000-
NORTHEAST WISCONSIN

CITY           SKY/WX    TMP DP  RH WIND       PRES   REMARKS
ANTIGO         SUNNY     62  31  31 CALM      29.98F
SHAWANO        SUNNY     64  36  34 S6        29.98F
OCONTO         SUNNY     56  39  53 SE8       29.99F
STURGEON BAY   SUNNY     55  36  47 NW7       30.01F
GREEN BAY      SUNNY     61  37  41 VRB3      30.00F
MANITOWOC      SUNNY     52  39  61 MISG      30.01F
APPLETON       SUNNY     57  34  41 NW6       29.99F
CLINTONVILLE   SUNNY     61  34  36 CALM      29.99F
OSHKOSH        SUNNY     60  37  42 VRB7      30.00F
$$

WIZ032>034-041-042-053>061-052000-
SOUTHWEST WISCONSIN

CITY           SKY/WX    TMP DP  RH WIND       PRES   REMARKS
LA CROSSE      SUNNY     65  32  29 NW6       30.02F
SPARTA         SUNNY     65  30  26 W8        30.02F
VIROQUA        SUNNY     63  30  29 W7        30.03F
BOSCOBEL       SUNNY     68  33  27 VRB6      30.02F
PRAIRIE DU CHI SUNNY     64  30  28 NW7       30.03F
PLATTEVILLE    SUNNY     62  38  41 N5        30.03F
$$

WIZ056-057-062-063-064-067-068-052000-
SOUTH CENTRAL WISCONSIN

CITY           SKY/WX    TMP DP  RH WIND       PRES   REMARKS
REEDSBURG      SUNNY     62  36  37 SW6       30.01F
BARABOO/DELLS  SUNNY     63  30  29 CALM      30.00F
LONE ROCK      SUNNY     64  37  36 W7        30.02F
MINERAL POINT  SUNNY     63  34  34 NW6       30.03F
MADISON        SUNNY     62  36  37 N8        30.01F
MIDDLETON      SUNNY     63  34  34 N9        30.02F
WATERTOWN      SUNNY     61  40  45 N6        30.01S
MONROE         SUNNY     61  37  41 N5        30.01F
JANESVILLE     SUNNY     63  39  42 N10       30.01F
$$

WIZ051-052-058>065-066-070>072-052000-
SOUTHEAST WISCONSIN

CITY           SKY/WX    TMP DP  RH WIND       PRES   REMARKS
MILWAUKEE      SUNNY     54  40  59 NE10      30.02F
WAUKESHA       SUNNY     59  37  44 N7        30.01F
MILWAUKEE/TIMM SUNNY     61  37  41 NE6       30.01F
RACINE         SUNNY     54  39  57 NE14      30.02F
BURLINGTON     SUNNY     61  35  38 N8        30.00S
KENOSHA        SUNNY     61  42  49 CALM      30.00F
FOND DU LAC    SUNNY     60  41  49 NE6       30.00F
SHEBOYGAN      SUNNY     57  42  57 E6        30.00F
WEST BEND      SUNNY     59  34  38 NW6       30.00F
JUNEAU         SUNNY     59  38  45 N6        30.02S
$$

LSZ147-162-052000-
LAKE SUPERIOR

STATION/POSITION TIME  TEMP    WIND        PRES    WAVE
                       AIR SEA DIR/SP/G            HT/PER
                 (UTC) (F)     (DEG/KT/KT) (MB)    (FT/S)
W MID LAKE BUOY  1850   42 37  180/  6/  6 1013.8F   0
DEVILS ISLAND    1900   54     240/  7/ 10 1013.0F
PORT WING        1710   46     300/  7/ 11 1013.9F
SAXON HARBOR     1900           70/  5/ 16 1012.5F
$$

LMZ867-665-643>646-052000-
LAKE MICHIGAN

STATION/POSITION TIME  TEMP    WIND        PRES    WAVE
                       AIR SEA DIR/SP/G            HT/PER
                 (UTC) (F)     (DEG/KT/KT) (MB)    (FT/S)
CHAMBERS ISLAND  1800   48      80/  7/  9 1016.3F
N MID LAKE BUOY  1850   40 39  220/  4/  4 1016.1F   1
NORTHPORT PIER   1800   45     330/  3/  4 1016.3F
ALGOMA LAKESHORE 1815          130/  8/  9   N/A
KEWAUNEE LAKESHO 1900   46     100/  4/  7 1015.5F
SHEBOYGAN LAKESH 1900   42      60/  7/  8 1016.9F
PORT WASHINGTON  1840   46      60/  6/  8 1016.9F
S MID LAKE BUOY  1850   40 40  350/ 14/ 16 1016.0F   4/ 6
KENOSHA   LAKESH 1900   46      50/ 15/ 17 1015.9F
$$

TC  - TEMPERATURE IN CELSIUS
VSB - VISIBILITY IN STATUTE MILES
WCI - WIND CHILL INDEX
HX  - HEAT INDEX





USA.gov is the U.S. government's official web portal to all federal, state and local government web resources and services.